This demonstration page uses our WeatherBlox Daily Observations layout. Learn more.

Left ArrowRight Arrow

38.83388, -104.82136

Hourly Observations for April 22, 2017

Temp ( °F °C ) Dew Point ( °F °C ) Humidity (%) Winds ( mph kmh ) Pressure ( in mb ) Visibility ( mi km ) Precip ( " mm )
12:58 am 00:58 Cloudy with Light Rain/Snow 35 1.6 30 -1.2 82 82 NNW 10 17 29.86 1011 10 16 0.00 0.00
1:58 am 01:58 Cloudy with Light Rain/Snow 34 0.9 31 -0.6 90 90 Calm 29.90 1013 2 3 0.00 0.00
2:03 am 02:03 Cloudy with Light Snow 34 1 30 -1 87 87 Calm 29.90 1013 2 4 0.00 0.00
2:13 am 02:13 Mostly Cloudy with Light Snow 34 1 32 0 93 93 SSE 5 7 29.89 1012 1 2 0.00 0.00
2:58 am 02:58 Mostly Cloudy with Light Rain 32 -0.2 31 -0.3 99 99 SSE 5 7 29.92 1013 1 2 0.01 0.25
3:18 am 03:18 Mostly Cloudy with Fog 32 0 32 0 100 100 SSE 6 9 29.92 1013 1 2 0.00 0.00
3:58 am 03:58 Mostly Cloudy with Fog 31 -0.3 31 -0.3 100 100 SSE 5 7 29.93 1014 1 2 0.01 0.25
4:07 am 04:07 Mostly Cloudy with Light Rain 32 0 32 0 100 100 SSE 5 7 29.93 1014 1 2 0.00 0.00
4:58 am 04:58 Mostly Cloudy with Light Showers 31 -0.3 32 -0.2 100 100 SSE 6 9 29.92 1013 1 2 0.00 0.00
5:58 am 05:58 Mostly Cloudy with Light Showers 32 -0.2 32 -0.1 100 100 SSE 6 9 29.94 1014 1 2 0.00 0.00
6:58 am 06:58 Mostly Cloudy with Light Rain 32 -0.2 32 0 100 100 SE 5 7 29.97 1015 1 2 0.00 0.00
7:58 am 07:58 Mostly Cloudy with Light Rain 31 -0.3 32 -0.2 100 100 SSE 5 7 30.00 1016 1 2 0.01 0.25
8:08 am 08:08 Mostly Cloudy with Fog 32 0 32 0 100 100 SE 7 11 30.00 1016 1 2 0.00 0.00
8:28 am 08:28 Mostly Cloudy with Light Showers 32 0 32 0 100 100 SSE 5 7 29.99 1016 1 2 0.00 0.00
8:45 am 08:45 Mostly Cloudy with Fog 32 0 32 0 100 100 Calm 29.99 1016 1 2 0.00 0.00
8:58 am 08:58 Mostly Cloudy with Fog 32 -0.1 32 0 100 100 SSE 3 6 30.02 1017 1 2 0.00 0.00
9:10 am 09:10 Mostly Cloudy with Light Showers 32 0 32 0 100 100 SE 3 6 30.02 1017 1 2 0.00 0.00
9:58 am 09:58 Mostly Cloudy with Light Rain/Snow 32 0.1 32 0.2 100 100 SE 5 7 30.03 1017 1 2 0.01 0.25
10:43 am 10:43 Mostly Cloudy with Light Rain 32 0 N/A N/A Calm 30.04 1017 4 6 0.00 0.00
10:58 am 10:58 Mostly Cloudy with Light Showers 33 0.6 33 0.6 100 100 SSE 5 7 30.04 1017 5 8 0.00 0.00
11:23 am 11:23 Cloudy 34 1 34 1 100 100 SSE 3 6 30.05 1018 10 16 0.00 0.00
11:58 am 11:58 Mostly Cloudy 35 1.6 35 1.6 100 100 SE 7 11 30.02 1017 10 16 0.01 0.25
12:03 pm 12:03 Mostly Cloudy 36 2 36 2 100 100 SSE 7 11 30.02 1017 10 16 0.00 0.00
12:16 pm 12:16 Mostly Cloudy with Light Rain 36 2 36 2 100 100 S 8 13 30.02 1017 10 16 0.00 0.00
12:21 pm 12:21 Mostly Cloudy with Light Rain 36 2 36 2 100 100 S 9 15 30.02 1017 10 16 0.00 0.00
12:46 pm 12:46 Mostly Cloudy with Light Rain/Snow 36 2 N/A N/A S 8 13 30.01 1016 10 16 0.00 0.00
12:56 pm 12:56 Mostly Cloudy with Light Rain 36 2 36 2 100 100 S 8 13 30.02 1017 10 16 0.00 0.00
12:58 pm 12:58 Mostly Cloudy with Light Rain 36 2.2 36 2.2 100 100 S 9 15 30.02 1017 10 16 0.02 0.51
1:08 pm 13:08 Mostly Cloudy with Light Rain 36 2 34 1 93 93 SSW 3 6 30.02 1017 4 6 0.00 0.00
1:40 pm 13:40 Mostly Cloudy 39 4 39 4 100 100 ESE 7 11 30.01 1016 10 16 0.00 0.00
1:58 pm 13:58 Mostly Cloudy 39 3.9 40 4.3 100 100 SSE 7 11 30.01 1016 10 16 0.01 0.25
2:13 pm 14:13 Mostly Cloudy 41 5 39 4 93 93 SE 9 15 29.99 1016 10 16 0.00 0.00
2:58 pm 14:58 Mostly Cloudy 41 5.2 36 2.2 81 81 ESE 3 6 30.01 1016 10 16 0.00 0.00
3:13 pm 15:13 Partly Cloudy 41 5 32 0 70 70 SSE 3 6 30.00 1016 10 16 0.00 0.00
3:58 pm 15:58 Mostly Cloudy 41 5.1 32 0.2 71 71 S 8 13 29.98 1015 10 16 0.00 0.00
4:58 pm 16:58 Partly Cloudy 42 5.5 33 0.4 70 70 S 9 15 29.96 1015 10 16 0.00 0.00
5:58 pm 17:58 Partly Cloudy 42 5.4 33 0.8 73 73 S 7 11 29.97 1015 10 16 0.00 0.00
6:58 pm 18:58 Mostly Cloudy 42 5.3 33 0.5 71 71 SSW 9 15 29.97 1015 10 16 0.00 0.00
7:23 pm 19:23 Mostly Cloudy 41 5 32 0 70 70 SSW 8 13 29.97 1015 10 16 0.00 0.00
7:58 pm 19:58 Mostly Cloudy 41 5.2 33 0.6 72 72 SSW 10 17 29.97 1015 10 16 0.00 0.00
8:28 pm 20:28 Partly Cloudy 41 5 34 1 76 76 S 10 17 29.97 1015 10 16 0.00 0.00
8:58 pm 20:58 Clear 40 4.6 32 0.2 73 73 SSW 7 11 29.98 1015 10 16 0.00 0.00
9:58 pm 21:58 Clear 40 4.3 31 -0.5 71 71 SSW 13 20 29.98 1015 10 16 0.00 0.00
9:59 pm 21:59 Clear 41 5 30 -1 66 66 W 14 22 29.96 1015 10 16 0.00 0.00
10:58 pm 22:58 Clear 40 4.4 29 -1.8 64 64 SSW 8 13 29.96 1015 10 16 0.00 0.00
11:58 pm 23:58 Clear 41 5.2 27 -2.7 57 57 S 6 9 29.92 1013 10 16 0.00 0.00

Powered by AerisWeather